This demonstration page uses our WeatherBlox Daily Observations layout. Learn more.

Left ArrowRight Arrow

39.95238, -75.16362

Hourly Observations for February 9, 2017

Temp ( °F °C ) Dew Point ( °F °C ) Humidity (%) Winds ( mph kmh ) Pressure ( in mb ) Visibility ( mi km ) Precip ( " mm )
12:54 am 00:54 Cloudy 47 8.3 35 1.7 63 63 E 13 20 29.62 1003 10 16 0.00 0.00
1:32 am 01:32 Cloudy with Light Rain 46 7.8 35 1.7 66 66 E 12 19 29.59 1002 8 13 0.00 0.03
1:39 am 01:39 Cloudy with Rain 45 7.2 36 2.2 71 71 ENE 10 17 29.59 1002 6 10 0.01 0.25
1:50 am 01:50 Cloudy 45 7 36 2 71 71 ENE 9 15 29.59 1002 8 13 0.00 0.00
1:54 am 01:54 Cloudy 45 7.2 36 2.2 71 71 E 10 17 29.57 1002 8 13 0.02 0.51
2:29 am 02:29 Cloudy with Light Rain 45 7.2 36 2.2 71 71 NNE 8 13 29.56 1001 6 10 0.00 0.03
2:48 am 02:48 Cloudy with Light Rain 45 7 36 2 71 71 ENE 8 13 29.56 1001 8 13 0.01 0.25
2:54 am 02:54 Cloudy with Light Rain 44 6.7 36 2.2 73 73 NE 10 17 29.53 1000 8 13 0.01 0.25
3:03 am 03:03 Cloudy 45 7 37 3 76 76 ENE 12 19 29.53 1000 10 16 0.00 0.00
3:29 am 03:29 Cloudy with Light Rain 44 6.7 36 2.2 73 73 NNE 8 13 29.53 1000 6 10 0.00 0.03
3:54 am 03:54 Cloudy with Light Rain 42 5.6 36 2.2 79 79 NE 17 28 29.51 999 6 10 0.04 1.02
4:09 am 04:09 Cloudy with Light Rain 42 5.6 35 1.7 76 76 NE 15 24 29.50 999 7 11 0.01 0.25
4:30 am 04:30 Cloudy with Light Rain 41 5 36 2.2 82 82 NE 18 30 29.50 999 7 11 0.02 0.51
4:36 am 04:36 Cloudy with Light Rain 41 5 36 2 81 81 NNE 18 30 29.50 999 5 8 0.00 0.00
4:47 am 04:47 Cloudy with Heavy Rain 41 5 37 2.8 86 86 NNE 15 24 29.50 999 4 6 0.06 1.52
4:54 am 04:54 Cloudy with Heavy Rain 40 4.4 37 2.8 89 89 N 16 26 29.52 1000 3 5 0.10 2.54
5:03 am 05:03 Cloudy with Heavy Rain 39 4 36 2 87 87 N 18 30 29.53 1000 3 5 0.00 0.00
5:27 am 05:27 Cloudy with Rain 37 2.8 34 1.1 89 89 N 20 31 29.53 1000 5 8 0.16 4.06
5:37 am 05:37 Cloudy with Mist and Fog 36 2.2 33 0.6 89 89 N 22 35 29.53 1000 5 8 0.18 4.57
5:54 am 05:54 Cloudy with Mist and Fog 35 1.7 31 -0.6 85 85 N 22 35 29.53 1000 6 10 0.20 5.08
6:13 am 06:13 Cloudy with Mist and Fog 34 1.1 31 -0.6 89 89 NNE 17 28 29.53 1000 5 8 0.04 1.02
6:24 am 06:24 Cloudy with Mist and Fog 34 1.1 31 -0.6 89 89 N 22 35 29.53 1000 4 6 0.06 1.52
6:28 am 06:28 Windy with Snow Likely 34 1.1 30 -1.1 85 85 N 25 41 29.53 1000 3 5 0.07 1.78
6:30 am 06:30 Windy with Snow Likely 33 0.6 30 -1.1 89 89 N 20 31 29.53 1000 2 3 0.07 1.78
6:34 am 06:34 Windy with Snow Likely 33 0.6 30 -1.1 89 89 N 28 44 29.53 1000 2 2 0.08 2.03
6:42 am 06:42 Windy with Snow Likely 33 0.6 31 -0.6 92 92 N 25 41 29.56 1001 1 2 0.09 2.29
6:46 am 06:46 Windy with Snow Likely 34 1 30 -1 87 87 N 30 48 29.56 1001 1 1 0.00 0.00
6:54 am 06:54 Windy with Snow Likely 33 0.6 30 -1.1 89 89 N 25 41 29.56 1001 1 1 0.10 2.54
7:11 am 07:11 Mostly Cloudy with Light Snow 32 0 31 -0.6 96 96 N 22 35 29.56 1001 1 2 0.03 0.76
7:28 am 07:28 Windy with Snow Likely 32 0 30 -1.1 92 92 N 24 39 29.56 1001 1 1 0.04 1.02
7:54 am 07:54 Windy with Snow Likely 32 0 30 -1.1 92 92 N 22 35 29.57 1001 1 1 0.05 1.27
8:12 am 08:12 Windy with Snow Likely 32 0 29 -1.7 88 88 N 20 31 29.59 1002 1 1 0.01 0.25
8:32 am 08:32 Windy with Snow Likely 30 -1 28 -2 93 93 NNW 24 39 29.59 1002 1 2 0.00 0.00
8:39 am 08:39 Windy with Snow Likely 30 -1.1 27 -2.8 88 88 N 23 37 29.59 1002 1 2 0.02 0.51
8:54 am 08:54 Windy with Snow Likely 30 -1.1 27 -2.8 88 88 N 24 39 29.60 1002 1 2 0.02 0.51
9:20 am 09:20 Windy with Snow Likely 30 -1 27 -3 86 86 NNW 21 33 29.62 1003 2 3 0.00 0.00
9:49 am 09:49 Windy with Snow Likely 30 -1 25 -4 80 80 NNW 24 39 29.62 1003 3 5 0.00 0.03
9:54 am 09:54 Windy with Snow Likely 30 -1.1 25 -3.9 82 82 NNW 23 37 29.64 1004 5 8 0.00 0.03
10:03 am 10:03 Windy with Snow Likely 30 -1 25 -4 80 80 NNW 20 31 29.65 1004 7 11 0.00 0.00
10:13 am 10:13 Cloudy 31 -0.6 24 -4.4 76 76 NNW 24 39 29.65 1004 10 16 0.00 0.03
10:43 am 10:43 Mostly Cloudy 31 -0.6 22 -5.6 69 69 NNW 26 43 29.65 1004 10 16 0.00 0.03
10:54 am 10:54 Mostly Cloudy 31 -0.6 22 -5.6 69 69 NNW 23 37 29.66 1004 10 16 0.00 0.03
11:54 am 11:54 Mostly Cloudy 31 -0.6 19 -7.2 61 61 NW 31 50 29.67 1005 10 16 0.00 0.00
12:54 pm 12:54 Mostly Cloudy 31 -0.6 17 -8.3 56 56 WNW 25 41 29.69 1005 10 16 0.00 0.00
1:54 pm 13:54 Mostly Cloudy 30 -1.1 15 -9.4 54 54 NW 23 37 29.72 1006 10 16 0.00 0.00
2:54 pm 14:54 Mostly Cloudy 30 -1.1 10 -12.2 43 43 NW 31 50 29.75 1008 10 16 0.00 0.00
3:54 pm 15:54 Partly Cloudy 30 -1.1 10 -12.2 43 43 NW 22 35 29.80 1009 10 16 0.00 0.00
4:54 pm 16:54 Partly Cloudy 29 -1.7 6 -14.4 38 38 NW 26 43 29.85 1011 10 16 0.00 0.00
5:54 pm 17:54 Partly Cloudy 28 -2.2 3 -16.1 34 34 NW 28 44 29.89 1012 10 16 0.00 0.00
6:54 pm 18:54 Partly Cloudy 27 -2.8 4 -15.6 37 37 NW 17 28 29.94 1014 10 16 0.00 0.00
7:54 pm 19:54 Partly Cloudy 26 -3.3 3 -16.1 37 37 NW 17 28 30.01 1016 10 16 0.00 0.00
8:54 pm 20:54 Mostly Clear 25 -3.9 3 -16.1 39 39 NW 20 31 30.06 1018 10 16 0.00 0.00
9:54 pm 21:54 Partly Cloudy 24 -4.4 3 -16.1 40 40 NW 15 24 30.11 1020 10 16 0.00 0.00
10:54 pm 22:54 Mostly Cloudy 25 -3.9 4 -15.6 40 40 WNW 13 20 30.15 1021 10 16 0.00 0.00
11:54 pm 23:54 Partly Cloudy 24 -4.4 5 -15 44 44 WNW 12 19 30.17 1022 10 16 0.00 0.00

Powered by AerisWeather